NIMBUS 2 DEB, 24956

Orbit data source: Space-Track

NIMBUS 2 DEB, 24956 is space debris in SSO originally from a launch on Sun, 15 May 1966 UTC launched from the Air Force Western Test Range (AFWTR). Debris objects in space refer to the collection of defunct objects orbiting the Earth. Examples of debris include non-operational satellites, rocket bodies, and fragments generated from explosions, collisions, or faulty payload assembly.

Loading next visibility...
Identifier
24956, 1966-040C
Orbit
SSO
Country
Flag of USUS
Related business
Manufacturer
Unknown
Mission
Spacecraft
Bus & Motor
Unknown
Mass
Unknown
Launch date (UTC)
1966-05-15 (59 years ago)
Launch vehicle
Unknown
Launch site
Air Force Western Test Range (AFWTR)
Object type
Payload
Rocket body
Debris
Shape & HBR
Unknown shape, 0.1 m
Radar Cross Section
Small (<0.1 m²)

Expand to show TLE details & history
Last TLE update: 9 hours ago

TLE from 9 hours ago
0 NIMBUS 2 DEB
1 24956U 66040C   25290.71926889  .00002894  00000-0  36783-2 0  9992
2 24956 100.4668  97.4434 0045336 273.9885 106.0259 13.63904802906326
Epoch: 2025-10-17T17:15Z
TLE epoch observation values (Epoch: 2025-10-17T17:15:44.832Z)
Latitude
20.162°
Longitude
168.17663°
Altitude
1,033.325 km
Speed
7.332 km/s
True Right ascension
06h 14m 17s
True Declination
20° 03' 18"
Sunlit
Object was in daylight at epoch
Visualization orbit readout
Latitude
Unknown
Longitude
Unknown
Altitude
Unknown
Speed
Unknown
Apparent Right ascension
Unknown
Apparent Declination
Unknown
Sunlit
N/A
Visualization observer readout
Local Sidereal Time
21:02:39
Azimuth
Unknown
Elevation
Unknown
Doppler factor
Unknown
Orbital elements
Apogee altitude
1,052.394 km
Perigee altitude
985.324 km
Semi-major axis
7,396.996 km
Eccentricity
0.00453
Inclination
100.4668°
RAAN
97.4434°
Arg. of periapsis
273.9885°
True anomaly
106.52444°
Mean anomaly
106.0259°
Eccentric anomaly
106.27525°
Mean motion
3.41162 °/min
Orbital period
105.52 mins
BSTAR
0.0036783
Loading maneuver chart data...
Computing Atmospheric mass density...
Loading historical data...
Loading historical data...
Loading historical data...
Loading historical data...
Loading historical data...
Loading historical data...
Loading historical data...

Documentation

Showing up to 5 results
|